• In Belarus
  • List of Countries
  • For 7 days
  • Water Temperature
  • Satellite Maps
  • Weather Map
  • Weather Widgets
  • user-avatar
    Login

    Hourly Weather Adelaide

    Today, 24 October, Tuesday

    Time Temperature Precipitation Wind Pressure Humidity
    00:00 +14°C° 0 mm 3 mps 757 mmHg 77%
    01:00 +14°C° 0 mm 3 mps 757 mmHg 76%
    02:00 +14°C° 0 mm 3 mps 756 mmHg 75%
    03:00 +15°C° 0 mm 2 mps 756 mmHg 74%
    04:00 +16°C° 0 mm 2 mps 756 mmHg 72%
    05:00 +16°C° 0 mm 2 mps 756 mmHg 70%
    06:00 +18°C° 0 mm 1 mps 757 mmHg 68%
    07:00 +19°C° 0 mm 2 mps 757 mmHg 58%
    08:00 +23°C° 0 mm 2 mps 757 mmHg 49%
    09:00 +26°C° 0 mm 3 mps 756 mmHg 33%
    10:00 +26°C° 0.1 mm 4 mps 756 mmHg 35%
    11:00 +25°C° 0.1 mm 4 mps 756 mmHg 38%
    12:00 +23°C° 0.1 mm 5 mps 756 mmHg 40%
    13:00 +22°C° 0.2 mm 5 mps 755 mmHg 46%
    14:00 +22°C° 0.2 mm 4 mps 754 mmHg 52%
    15:00 +21°C° 0.2 mm 4 mps 754 mmHg 58%
    16:00 +20°C° 0 mm 5 mps 753 mmHg 58%
    17:00 +20°C° 0 mm 5 mps 753 mmHg 57%
    18:00 +20°C° 0 mm 5 mps 752 mmHg 57%
    19:00 +19°C° 0.1 mm 5 mps 752 mmHg 62%
    20:00 +17°C° 0.1 mm 5 mps 752 mmHg 67%
    21:00 +16°C° 0.1 mm 5 mps 752 mmHg 72%
    22:00 +17°C° 0.1 mm 4 mps 752 mmHg 74%
    23:00 +15°C° 0.1 mm 4 mps 752 mmHg 77%

    Tomorrow, 25 October, Wednesday

    Time Temperature Precipitation Wind Pressure Humidity
    00:00 +15°C° 0.1 mm 4 mps 752 mmHg 79%
    01:00 +14°C° 0 mm 4 mps 752 mmHg 82%
    02:00 +14°C° 0 mm 3 mps 752 mmHg 84%
    03:00 +13°C° 0 mm 3 mps 751 mmHg 87%
    04:00 +14°C° 0 mm 3 mps 752 mmHg 88%
    05:00 +14°C° 0 mm 3 mps 752 mmHg 88%
    06:00 +16°C° 0 mm 3 mps 752 mmHg 89%
    07:00 +17°C° 0 mm 4 mps 752 mmHg 81%
    08:00 +19°C° 0 mm 4 mps 753 mmHg 72%
    09:00 +21°C° 0 mm 4 mps 753 mmHg 64%
    10:00 +22°C° 0 mm 5 mps 753 mmHg 60%
    11:00 +23°C° 0 mm 6 mps 753 mmHg 56%
    12:00 +24°C° 0 mm 6 mps 753 mmHg 52%
    13:00 +23°C° 0 mm 6 mps 753 mmHg 53%
    14:00 +23°C° 0 mm 6 mps 753 mmHg 55%
    15:00 +22°C° 0 mm 7 mps 753 mmHg 56%
    16:00 +21°C° 0 mm 6 mps 753 mmHg 64%
    17:00 +19°C° 0 mm 5 mps 754 mmHg 72%
    18:00 +16°C° 0 mm 5 mps 754 mmHg 80%
    19:00 +15°C° 0 mm 5 mps 755 mmHg 82%
    20:00 +15°C° 0 mm 4 mps 755 mmHg 85%
    21:00 +14°C° 0 mm 4 mps 756 mmHg 87%
    22:00 +14°C° 0 mm 4 mps 756 mmHg 86%
    23:00 +14°C° 0 mm 4 mps 756 mmHg 86%

    Day after tomorrow, 26 October, Thursday

    Time Temperature Precipitation Wind Pressure Humidity
    00:00 +14°C° 0 mm 4 mps 756 mmHg 85%
    01:00 +13°C° 0 mm 4 mps 755 mmHg 84%
    02:00 +13°C° 0 mm 4 mps 755 mmHg 83%
    03:00 +13°C° 0 mm 4 mps 755 mmHg 82%
    04:00 +13°C° 0 mm 4 mps 755 mmHg 80%
    05:00 +13°C° 0 mm 4 mps 756 mmHg 78%
    06:00 +13°C° 0 mm 3 mps 756 mmHg 77%
    07:00 +16°C° 0 mm 3 mps 756 mmHg 69%
    08:00 +17°C° 0 mm 3 mps 756 mmHg 62%
    09:00 +18°C° 0 mm 3 mps 756 mmHg 55%
    10:00 +19°C° 0 mm 3 mps 756 mmHg 51%
    11:00 +20°C° 0 mm 3 mps 756 mmHg 46%
    12:00 +22°C° 0 mm 3 mps 756 mmHg 42%
    13:00 +22°C° 0 mm 3 mps 755 mmHg 41%
    14:00 +22°C° 0 mm 3 mps 755 mmHg 40%
    15:00 +22°C° 0 mm 3 mps 755 mmHg 39%
    16:00 +20°C° 0 mm 3 mps 755 mmHg 44%
    17:00 +19°C° 0 mm 2 mps 755 mmHg 49%
    18:00 +17°C° 0 mm 2 mps 755 mmHg 55%
    19:00 +16°C° 0 mm 2 mps 755 mmHg 59%
    20:00 +15°C° 0 mm 2 mps 755 mmHg 64%
    21:00 +14°C° 0 mm 2 mps 755 mmHg 68%
    22:00 +13°C° 0 mm 2 mps 755 mmHg 68%
    23:00 +12°C° 0 mm 3 mps 754 mmHg 68%

    27 October, Friday

    Time Temperature Precipitation Wind Pressure Humidity
    00:00 +12°C° 0 mm 3 mps 754 mmHg 68%
    01:00 +12°C° 0 mm 3 mps 753 mmHg 65%
    02:00 +12°C° 0 mm 4 mps 753 mmHg 62%
    03:00 +12°C° 0 mm 4 mps 752 mmHg 59%
    04:00 +13°C° 0 mm 5 mps 752 mmHg 56%
    05:00 +14°C° 0 mm 5 mps 752 mmHg 53%
    06:00 +16°C° 0 mm 6 mps 751 mmHg 50%
    07:00 +18°C° 0 mm 7 mps 751 mmHg 43%
    08:00 +22°C° 0 mm 7 mps 750 mmHg 37%
    09:00 +26°C° 0 mm 8 mps 750 mmHg 31%
    10:00 +29°C° 0 mm 8 mps 749 mmHg 28%
    11:00 +32°C° 0 mm 9 mps 748 mmHg 24%
    12:00 +36°C° 0 mm 10 mps 747 mmHg 20%
    13:00 +34°C° 0 mm 9 mps 747 mmHg 21%
    14:00 +34°C° 0 mm 9 mps 747 mmHg 22%
    15:00 +33°C° 0 mm 9 mps 746 mmHg 23%
    16:00 +28°C° 0.1 mm 8 mps 747 mmHg 37%
    17:00 +24°C° 0.1 mm 7 mps 749 mmHg 50%
    18:00 +20°C° 0.1 mm 7 mps 750 mmHg 64%
    19:00 +19°C° 0 mm 6 mps 751 mmHg 70%
    20:00 +16°C° 0 mm 6 mps 752 mmHg 76%
    21:00 +15°C° 0 mm 5 mps 753 mmHg 82%
    22:00 +14°C° 0 mm 5 mps 753 mmHg 82%
    23:00 +13°C° 0 mm 4 mps 753 mmHg 83%

    28 October, Saturday

    Time Temperature Precipitation Wind Pressure Humidity
    00:00 +12°C° 0 mm 4 mps 753 mmHg 84%
    01:00 +12°C° 0 mm 3 mps 753 mmHg 84%
    02:00 +11°C° 0 mm 3 mps 753 mmHg 84%
    03:00 +11°C° 0 mm 3 mps 753 mmHg 84%
    04:00 +11°C° 0 mm 3 mps 754 mmHg 82%
    05:00 +12°C° 0 mm 3 mps 754 mmHg 79%
    06:00 +13°C° 0 mm 3 mps 754 mmHg 77%
    07:00 +14°C° 0 mm 3 mps 754 mmHg 68%
    08:00 +17°C° 0 mm 4 mps 754 mmHg 60%
    09:00 +19°C° 0 mm 4 mps 754 mmHg 51%
    10:00 +20°C° 0 mm 4 mps 754 mmHg 48%
    11:00 +21°C° 0 mm 5 mps 753 mmHg 45%
    12:00 +22°C° 0 mm 5 mps 753 mmHg 42%
    13:00 +21°C° 0 mm 5 mps 753 mmHg 41%
    14:00 +21°C° 0 mm 5 mps 752 mmHg 41%
    15:00 +21°C° 0 mm 5 mps 752 mmHg 41%
    16:00 +20°C° 0 mm 5 mps 752 mmHg 47%
    17:00 +19°C° 0 mm 4 mps 753 mmHg 53%
    18:00 +18°C° 0 mm 3 mps 753 mmHg 59%
    19:00 +17°C° 0 mm 3 mps 753 mmHg 65%
    20:00 +15°C° 0 mm 2 mps 753 mmHg 72%
    21:00 +14°C° 0 mm 2 mps 754 mmHg 78%
    22:00 +14°C° 0 mm 2 mps 753 mmHg 79%
    23:00 +13°C° 0 mm 3 mps 752 mmHg 80%

    29 October, Sunday

    Time Temperature Precipitation Wind Pressure Humidity
    00:00 +13°C° 0 mm 3 mps 752 mmHg 80%
    01:00 +13°C° 0 mm 4 mps 751 mmHg 75%
    02:00 +13°C° 0 mm 5 mps 751 mmHg 71%
    03:00 +14°C° 0 mm 6 mps 750 mmHg 66%
    04:00 +15°C° 0 mm 6 mps 750 mmHg 58%
    05:00 +16°C° 0 mm 6 mps 750 mmHg 51%
    06:00 +17°C° 0 mm 6 mps 749 mmHg 43%
    07:00 +21°C° 0 mm 8 mps 749 mmHg 37%
    08:00 +24°C° 0 mm 10 mps 748 mmHg 31%
    09:00 +27°C° 0 mm 11 mps 747 mmHg 24%
    10:00 +28°C° 0 mm 12 mps 747 mmHg 26%
    11:00 +28°C° 0 mm 12 mps 746 mmHg 27%
    12:00 +28°C° 0 mm 13 mps 746 mmHg 28%
    13:00 +23°C° 0.2 mm 12 mps 747 mmHg 41%
    14:00 +18°C° 0.2 mm 11 mps 747 mmHg 54%
    15:00 +14°C° 0.2 mm 10 mps 748 mmHg 66%
    16:00 +13°C° 0.1 mm 10 mps 749 mmHg 66%
    17:00 +13°C° 0.1 mm 11 mps 750 mmHg 65%
    18:00 +13°C° 0.1 mm 12 mps 751 mmHg 64%
    19:00 +12°C° 0.2 mm 10 mps 752 mmHg 67%
    20:00 +11°C° 0.2 mm 9 mps 754 mmHg 69%
    21:00 +10°C° 0.2 mm 8 mps 755 mmHg 71%
    22:00 +10°C° 0.1 mm 8 mps 755 mmHg 71%
    23:00 +9°C° 0.1 mm 8 mps 756 mmHg 70%

    30 October, Monday

    Time Temperature Precipitation Wind Pressure Humidity
    00:00 +9°C° 0.1 mm 8 mps 756 mmHg 70%
    01:00 +9°C° 0 mm 7 mps 757 mmHg 68%
    02:00 +9°C° 0 mm 7 mps 757 mmHg 66%
    03:00 +9°C° 0 mm 7 mps 758 mmHg 65%
    04:00 +9°C° 0 mm 6 mps 758 mmHg 63%
    05:00 +10°C° 0 mm 6 mps 759 mmHg 61%
    06:00 +10°C° 0 mm 6 mps 760 mmHg 60%
    07:00 +13°C° 0 mm 6 mps 761 mmHg 54%
    08:00 +14°C° 0 mm 6 mps 761 mmHg 49%
    09:00 +15°C° 0 mm 6 mps 762 mmHg 43%
    10:00 +16°C° 0 mm 6 mps 762 mmHg 42%
    11:00 +17°C° 0 mm 6 mps 762 mmHg 40%
    12:00 +17°C° 0 mm 5 mps 762 mmHg 39%
    13:00 +17°C° 0 mm 5 mps 762 mmHg 39%
    14:00 +17°C° 0 mm 5 mps 762 mmHg 39%
    15:00 +17°C° 0 mm 5 mps 762 mmHg 39%
    16:00 +17°C° 0 mm 4 mps 763 mmHg 44%
    17:00 +15°C° 0 mm 4 mps 763 mmHg 49%
    18:00 +14°C° 0 mm 4 mps 763 mmHg 54%
    19:00 +13°C° 0 mm 4 mps 764 mmHg 60%
    20:00 +12°C° 0 mm 3 mps 764 mmHg 67%
    21:00 +11°C° 0 mm 3 mps 764 mmHg 73%
    22:00 +11°C° 0 mm 3 mps 764 mmHg 76%
    23:00 +11°C° 0 mm 3 mps 764 mmHg 78%
    Show more